Location: Unspecified
(0.0000°N, 0.0000°E)
Time: 04:43:56
(UTC+00:00)

CANX-2 - Pass Details

Date: 17 May 2026
Orbit: 542 x 558 km, 97.9° (Epoch: 11 June)

Event Time Altitude Azimuth Distance (km) Brightness Sun altitude
Rises 03:30:03 0° 30° (NNE) 2,684 ? -34.2°
Reaches altitude 10° 03:32:22 10° 42° (NE) 1,797 ? -33.7°
Enters shadow 03:33:43 18° 56° (NE) 1,352 ? -33.4°
